Prescott, AZ

6:20 AM MST on November 12, 2019 (GMT -0700)
Love

Weather History for KPRC - May, 2019

Change the Weather History Date:

Monday, May 13, 2019

  Actual Average Record
Temperature  
Mean Temperature 62 °F 61 °F  
Max Temperature 78 °F 76 °F 89 °F (2012)
Min Temperature 45 °F 46 °F 31 °F (1980)
Degree Days  
Heating Degree Days 3    
Month to date heating degree days 100  
Since 1 July heating degree days 4149  
Cooling Degree Days 0    
Month to date cooling degree days 0  
Year to date cooling degree days 1  
Growing Degree Days 10 (Base 50)    
Moisture  
Dew Point 39 °F    
Average Humidity 47    
Maximum Humidity 89    
Minimum Humidity 18    
Precipitation  
Precipitation 0.00 in 0.01 in 0.20 in (2008)
Month to date precipitation 0.80 0.19  
Year to date precipitation 6.32 4.27  
Sea Level Pressure  
Sea Level Pressure 29.90 in    
Wind  
Wind Speed 7 mph (SW)    
Max Wind Speed 21 mph    
Max Gust Speed 25 mph    
Visibility 10 miles    
Events      
T = Trace of Precipitation, MM = Missing Value Source: NWS Daily Summary

Daily Weather History Graph

Daily Weather History Graph

Search for Another Location

Airport or City:

Astronomy

May. 13, 2019 Rise Set
Actual Time 5:28 AM MST 7:24 PM MST
Civil Twilight 5:00 AM MST 7:51 PM MST
Nautical Twilight 4:27 AM MST 8:25 PM MST
Astronomical Twilight 3:51 AM MST 9:01 PM MST
Moon 1:58 PM MST (5/13) 2:29 AM MST (5/13)
Length of Visible Light 14h 51m
Length of Day
13h 55m
Waxing Gibbous, 70% of the Moon is Illuminated
May 13
Waxing Gibbous
May 18
Full
May 26
Last Quarter
Jun 3
New
Jun 9
First Quarter

Hourly Weather History & Observations

Time (MST) Temp. Windchill Dew Point Humidity Pressure Visibility Wind Dir Wind Speed Gust Speed Precip Events Conditions
12:53 AM 50.0 °F - 42.1 °F 74% 29.90 in 10.0 mi South 5.8 mph - N/A   Clear
1:53 AM 48.0 °F - 42.1 °F 80% 29.89 in 10.0 mi Calm Calm - N/A   Clear
2:53 AM 46.9 °F - 42.1 °F 83% 29.92 in 10.0 mi Calm Calm - N/A   Clear
3:53 AM 46.9 °F - 41.0 °F 80% 29.93 in 10.0 mi South 8.1 mph - N/A   Clear
4:53 AM 45.0 °F 42.6 °F 41.0 °F 86% 29.94 in 10.0 mi SW 4.6 mph - N/A   Clear
5:53 AM 46.0 °F 43.9 °F 41.0 °F 83% 29.96 in 10.0 mi South 4.6 mph - N/A   Clear
6:53 AM 52.0 °F - 44.1 °F 74% 29.96 in 10.0 mi SSE 3.5 mph - N/A   Clear
7:53 AM 60.1 °F - 45.0 °F 57% 29.96 in 10.0 mi Calm Calm - N/A   Clear
8:53 AM 63.0 °F - 44.1 °F 50% 29.95 in 10.0 mi Variable 3.5 mph - N/A   Clear
9:53 AM 66.9 °F - 43.0 °F 42% 29.94 in 10.0 mi North 5.8 mph - N/A   Clear
10:53 AM 71.1 °F - 41.0 °F 34% 29.93 in 10.0 mi WNW 6.9 mph - N/A   Partly Cloudy
11:53 AM 73.9 °F - 37.0 °F 26% 29.91 in 10.0 mi WNW 9.2 mph - N/A   Scattered Clouds
12:53 PM 73.9 °F - 30.9 °F 21% 29.90 in 10.0 mi WSW 6.9 mph - N/A   Scattered Clouds
1:53 PM 75.9 °F - 30.0 °F 19% 29.89 in 10.0 mi West 8.1 mph - N/A   Scattered Clouds
2:53 PM 75.9 °F - 28.9 °F 18% 29.86 in 10.0 mi Variable 4.6 mph - N/A   Scattered Clouds
3:53 PM 75.9 °F - 36.0 °F 23% 29.85 in 10.0 mi NW 11.5 mph 17.3 mph N/A   Mostly Cloudy
4:53 PM 75.9 °F - 36.0 °F 23% 29.86 in 10.0 mi West 18.4 mph - N/A   Scattered Clouds
5:53 PM 75.0 °F - 36.0 °F 24% 29.85 in 10.0 mi WSW 16.1 mph 23.0 mph N/A   Clear
6:53 PM 72.0 °F - 37.0 °F 28% 29.86 in 10.0 mi West 9.2 mph - N/A   Clear
7:53 PM 69.1 °F - 37.9 °F 32% 29.86 in 10.0 mi WSW 8.1 mph - N/A   Clear
8:53 PM 63.0 °F - 39.0 °F 41% 29.89 in 10.0 mi SSW 6.9 mph - N/A   Clear
9:53 PM 61.0 °F - 39.0 °F 44% 29.91 in 10.0 mi South 6.9 mph - N/A   Scattered Clouds
10:53 PM 62.1 °F - 37.0 °F 39% 29.89 in 10.0 mi South 6.9 mph - N/A   Partly Cloudy
11:53 PM 57.9 °F - 39.0 °F 49% 29.90 in 10.0 mi South 3.5 mph - N/A   Clear